Regional Weather Roundup
Issued by NWS

Home | Current Version | Previous Version | Text Only | Print | Product List | Glossary Off
Versions: 1 2 3 4 5 6 7 8 9 10 11 12 13 14 15 16 17 18 19 20 21 22 23 24 25 26 27 28 29 30 31 32 33 34 35 36 37 38 39 40 41 42 43 44 45 46 47 48 49 50

000
ASUS43 KTOP 301659
RWRKS

WEATHER ROUNDUP FOR KANSAS
NATIONAL WEATHER SERVICE GOODLAND KS
1200 PM CDT TUE AUG 30 2016

NOTE:  "FAIR" INDICATES FEW OR NO CLOUDS BELOW 12,000 FEET WITH NO
SIGNIFICANT WEATHER AND/OR OBSTRUCTIONS TO VISIBILITY.

KSZ001>006-013>018-027>032-041>047-301800-
NORTHWEST KANSAS

CITY           SKY/WX    TMP DP  RH WIND       PRES   REMARKS
GOODLAND       PTSUNNY   70  62  76 VRB3      30.29S
HAYS           CLOUDY    73  63  68 CALM      30.23S
HILL CITY      CLOUDY    74  67  78 CALM      30.24S
RUSSELL        PTSUNNY   76  70  82 CALM      30.21R
$$

KSZ061>065-074>080-084>089-301800-
SOUTHWEST KANSAS

CITY           SKY/WX    TMP DP  RH WIND       PRES   REMARKS
DODGE CITY     CLOUDY    74  69  85 NE6       30.25S
ELKHART          N/A     68  63  84 S5          N/A
GARDEN CITY    MOSUNNY   70  67  90 E7        30.26S
GREAT BEND     CLOUDY    73  64  73 CALM      30.21S
LIBERAL        CLOUDY    72  64  78 NE3       30.28R
$$

KSZ066>073-081>083-090>101-301800-
SOUTHEAST KANSAS

CITY           SKY/WX    TMP DP  RH WIND       PRES   REMARKS
CHANUTE        SUNNY     86  72  62 S5        30.15S
COFFEYVILLE    SUNNY     87  74  64 N5        30.14S HX  95
HUTCHINSON     CLOUDY    81  71  71 CALM      30.19R
MEDICINE LODGE   N/A     81  69  67 VRB3      30.18S
NEWTON         CLOUDY    83  71  67 CALM      30.19S
PARSONS        SUNNY     87  72  60 CALM      30.15F
WICHITA INTL   MOSUNNY   87  69  54 E5        30.16S
WICHITA JABRA  SUNNY     84  72  67 CALM      30.17S
WINFIELD       SUNNY     84  71  65 E3        30.17S
$$

KSZ007>012-019>026-033>040-048>060-102>105-301800-
NORTHEAST KANSAS

CITY           SKY/WX    TMP DP  RH WIND       PRES   REMARKS
CONCORDIA      PTSUNNY   80  70  71 E5        30.20F
EMPORIA        CLOUDY    82  73  74 CALM      30.17S
LAWRENCE       CLOUDY    78  74  87 N8        30.16F
MANHATTAN      MOSUNNY   81  72  74 VRB3      30.18S
OLATHE IND     CLOUDY    79  73  82 N6        30.18S
OLATHE EXE     CLOUDY    80  71  74 N6        30.18S
SALINA         CLOUDY    79  73  82 CALM      30.19S
TOPEKA BILLARD MOSUNNY   82  73  74 N8        30.17S
TOPEKA FORBES  CLOUDY    85  72  65 NE7       30.17F
$$



USA.gov is the U.S. government's official web portal to all federal, state and local government web resources and services.